AirNav   Air Wisconsin Up To $57,000 Bonus
 
 565 users online  

73II Nulltown Wingnuts Ultralight Flightpark
Connersville, Indiana, USA

GOING TO CONNERSVILLE?


FAA INFORMATION EFFECTIVE 16 JUNE 2022

Location

FAA Identifier: 73II
Lat/Long: 39-34-18.0000N 085-09-31.0000W
39-34.300000N 085-09.516667W
39.5716667,-85.1586111
(estimated)
Elevation: 765 ft. / 233 m (estimated)
Variation: 03W (1990)
From city: 5 miles S of CONNERSVILLE, IN
Time zone: UTC -4 (UTC -5 during Standard Time)
Zip code: 47331

Ultralight Flight Park Operations

Ultralight Flight Park use: Private use. Permission required prior to landing
Activation date: 11/1994
Control tower: no
ARTCC: INDIANAPOLIS CENTER
FSS: TERRE HAUTE FLIGHT SERVICE STATION
Attendance: UNATNDD
Wind indicator: yes
Segmented circle: no

Ultralight Flight Park Communications

WX AWOS-3 at CEV (8 nm N): 118.325 (765-827-6649)
WX AWOS-3 at HLB (14 nm S): 124.075 (812-933-0108)
WX AWOS-3PT at OXD (18 nm E): 118.625 (513-273-2032)
WX AWOS-3 at RID (18 nm NE): 121.225 (765-983-1903)

Ultralight Flight Park Services

Runway Information

Runway NE/SW

Dimensions: 2000 x 60 ft. / 610 x 18 m
Surface: turf
RUNWAY NE  RUNWAY SW
Traffic pattern: leftleft
Obstructions: none60 ft. trees, 800 ft. from runway

Ultralight Flight Park Ownership and Management from official FAA records

Ownership: Privately-owned
Owner: NULLTOWN WINGNUTS
BOX 1025 W CR 480S
CONNERSVILLE, IN 47331
Phone 765-827-1718
Manager: G. DOUG HOWARD
1025 W COUNTY ROAD 480 S
CONNERVILLE, IN 47331-8902
Phone 765-827-1718
HOME: 765-827-1718

Ultralight Flight Park Operational Statistics

Aircraft based on the field: 13
Single engine airplanes: 5
Ultralights: 8
    

Additional Remarks

FOR CD CTC CINCINNATI APCH AT 859-372-6440

Instrument Procedures

There are no published instrument procedures at 73II.

Some nearby airports with instrument procedures:

KCEV - Mettel Field Airport (8 nm N)
KOXD - Miami University Airport (18 nm E)
KRID - Richmond Municipal Airport (18 nm NE)
KUWL - New Castle Henry County Airport / Marlatt Field (20 nm NW)
I34 - Greensburg Municipal Airport (22 nm SW)
 
Loc | Ops | Rwys | IFR | FBO | Links
Com | Nav | Svcs | Stats | Notes
Area around 73II (Nulltown Wingnuts Ultralight Flightpark)
 
Road maps at: MapQuest Bing Google
 
Aerial photo
No photo
 
Sectional chart

 
Airport distance calculator
Flying to Nulltown Wingnuts Ultralight Flightpark? Find the distance to fly.

From to 73II

Sunrise and sunset
Times for 28-Jun-2022
 Local
(UTC-4)
 Zulu
(UTC)
Morning civil twilight05:4409:44
Sunrise06:1610:16
Sunset21:1101:11
Evening civil twilight21:4401:44

Current date and time
Zulu (UTC)  28-Jun-2022 06:46:33
Local (UTC-4)  28-Jun-2022 02:46:33
 
METAR
KHLB 
14nm S 
280635Z AUTO 00000KT 10SM CLR 11/11 A3024 RMK A01
KOXD 
18nm E 
280635Z AUTO 02004KT 10SM CLR 14/03 A3024 RMK AO2 T01420030
KRID 
18nm NE 
280635Z AUTO 01005KT 10SM CLR 13/07 A3025 RMK AO2
KI67 
26nm SE 
280615Z AUTO 00000KT 10SM CLR 13/08 A3024 RMK AO1
TAF
KCVG 
39nm SE 
280520Z 2806/2912 01008KT P6SM SKC FM281000 VRB04KT P6SM SCT250
KLUK 
45nm SE 
280520Z 2806/2906 VRB03KT P6SM SCT250
KDAY 
48nm NE 
280520Z 2806/2906 34006KT P6SM SKC FM281000 VRB04KT P6SM SCT250
NOTAMs
Click for the latest NOTAMs
NOTAMs are issued by the DoD/FAA and will open in a separate window not controlled by AirNav.

 

 
 

Would you like to see your business listed on this page?

 If your business provides an interesting product or service to pilots, flight crews, aircraft, or users of the Nulltown Wingnuts Ultralight Flightpark, you should consider listing it here.  To start the listing process, click on the button below
 
Add a business
 

Other Pages about Nulltown Wingnuts Ultralight Flightpark

Update a link
 
Copyright © AirNav, LLC. All rights reserved. Privacy Policy  Contact